User: anonymous   Login
Location: Caltech
(34.1382°N, 118.1253°W)
Time: 21:23:16
(UTC-07:00)
Language:

Cosmos 1697 Rocket - Orbit

View from above orbital plane
View from above orbital plane
View from above satellite
View from above satellite

Ground track
Ground track

The orbit data is extracted from the following two-line orbital elements,

1 16182U 85097B   14297.45026623 -.00000083  00000-0 -18068-4 0  3970
2 16182 071.0039 241.9140 0005387 111.3653 026.9200 14.16130770499353
Epoch (UTC): 24 October 2014 10:48:23
Eccentricity: 0.0005387
inclination: 71.0039°
perigee height: 834 km
apogee height: 842 km
right ascension of ascending node: 241.9140°
argument of perigee: 111.3653°
revolutions per day: 14.16130770
mean anomaly at epoch: 26.9200°
orbit number at epoch: 49935

The dashed part of the orbit path shows where the satellite is in the earth's shadow,  

DLR